• In Hungary
  • List of Countries
  • For 7 days
  • Water Temperature
  • Satellite Maps
  • Weather Map
  • News
  • Weather Widgets
  • user-avatar
    Login

    Hourly Weather Saint-Nicolas

    Today, 20 February, Tuesday

    Time Temperature Precipitation Wind Pressure Humidity
    00:00 0°C° 0 mm 1 mps 748 mmHg 77%
    01:00 0°C° 0 mm 1 mps 748 mmHg 78%
    02:00 0°C° 0 mm 1 mps 748 mmHg 78%
    03:00 -1°C° 0 mm 1 mps 748 mmHg 79%
    04:00 -1°C° 0 mm 1 mps 748 mmHg 79%
    05:00 -1°C° 0 mm 1 mps 748 mmHg 79%
    06:00 -1°C° 0 mm 1 mps 748 mmHg 79%
    07:00 0°C° 0 mm 1 mps 749 mmHg 74%
    08:00 +2°C° 0 mm 1 mps 749 mmHg 70%
    09:00 +3°C° 0 mm 1 mps 749 mmHg 65%
    10:00 +4°C° 0 mm 1 mps 749 mmHg 61%
    11:00 +5°C° 0 mm 1 mps 749 mmHg 58%
    12:00 +5°C° 0 mm 2 mps 749 mmHg 54%
    13:00 +5°C° 0 mm 2 mps 749 mmHg 55%
    14:00 +5°C° 0 mm 2 mps 749 mmHg 56%
    15:00 +4°C° 0 mm 3 mps 749 mmHg 56%
    16:00 +3°C° 0 mm 2 mps 749 mmHg 62%
    17:00 +2°C° 0 mm 2 mps 749 mmHg 68%
    18:00 +1°C° 0 mm 2 mps 750 mmHg 74%
    19:00 -1°C° 0 mm 2 mps 750 mmHg 76%
    20:00 -1°C° 0 mm 2 mps 751 mmHg 78%
    21:00 -2°C° 0 mm 2 mps 751 mmHg 79%
    22:00 -2°C° 0 mm 2 mps 751 mmHg 81%
    23:00 -2°C° 0 mm 2 mps 752 mmHg 83%

    Tomorrow, 21 February, Wednesday

    Time Temperature Precipitation Wind Pressure Humidity
    00:00 -3°C° 0 mm 2 mps 752 mmHg 84%
    01:00 -3°C° 0 mm 2 mps 752 mmHg 85%
    02:00 -3°C° 0 mm 2 mps 752 mmHg 86%
    03:00 -3°C° 0 mm 2 mps 753 mmHg 87%
    04:00 -3°C° 0 mm 2 mps 753 mmHg 87%
    05:00 -3°C° 0 mm 2 mps 753 mmHg 87%
    06:00 -3°C° 0 mm 2 mps 753 mmHg 88%
    07:00 -2°C° 0 mm 2 mps 753 mmHg 82%
    08:00 -1°C° 0 mm 3 mps 753 mmHg 77%
    09:00 0°C° 0 mm 3 mps 753 mmHg 71%
    10:00 +1°C° 0 mm 3 mps 753 mmHg 66%
    11:00 +2°C° 0 mm 3 mps 753 mmHg 62%
    12:00 +3°C° 0 mm 4 mps 753 mmHg 57%
    13:00 +3°C° 0 mm 4 mps 753 mmHg 57%
    14:00 +3°C° 0 mm 4 mps 752 mmHg 57%
    15:00 +3°C° 0 mm 4 mps 752 mmHg 57%
    16:00 +1°C° 0 mm 4 mps 752 mmHg 63%
    17:00 0°C° 0 mm 3 mps 752 mmHg 69%
    18:00 -1°C° 0 mm 3 mps 752 mmHg 74%
    19:00 -2°C° 0 mm 3 mps 752 mmHg 75%
    20:00 -2°C° 0 mm 3 mps 752 mmHg 77%
    21:00 -2°C° 0 mm 3 mps 753 mmHg 78%
    22:00 -4°C° 0 mm 3 mps 752 mmHg 79%
    23:00 -4°C° 0 mm 3 mps 752 mmHg 80%

    Day after tomorrow, 22 February, Thursday

    Time Temperature Precipitation Wind Pressure Humidity
    00:00 -4°C° 0 mm 3 mps 752 mmHg 81%
    01:00 -4°C° 0 mm 3 mps 752 mmHg 82%
    02:00 -4°C° 0 mm 3 mps 752 mmHg 82%
    03:00 -4°C° 0 mm 3 mps 752 mmHg 82%
    04:00 -4°C° 0 mm 3 mps 752 mmHg 82%
    05:00 -4°C° 0 mm 3 mps 752 mmHg 82%
    06:00 -4°C° 0 mm 4 mps 752 mmHg 82%
    07:00 -4°C° 0 mm 4 mps 752 mmHg 74%
    08:00 -4°C° 0 mm 5 mps 752 mmHg 67%
    09:00 -2°C° 0 mm 5 mps 752 mmHg 59%
    10:00 -2°C° 0 mm 6 mps 752 mmHg 53%
    11:00 +1°C° 0 mm 6 mps 752 mmHg 47%
    12:00 +2°C° 0 mm 6 mps 752 mmHg 41%
    13:00 +2°C° 0 mm 6 mps 752 mmHg 42%
    14:00 +2°C° 0 mm 6 mps 751 mmHg 42%
    15:00 +2°C° 0 mm 6 mps 751 mmHg 43%
    16:00 0°C° 0 mm 5 mps 751 mmHg 48%
    17:00 -1°C° 0 mm 5 mps 751 mmHg 54%
    18:00 -2°C° 0 mm 4 mps 752 mmHg 59%
    19:00 -3°C° 0 mm 4 mps 752 mmHg 61%
    20:00 -4°C° 0 mm 5 mps 752 mmHg 63%
    21:00 -4°C° 0 mm 5 mps 752 mmHg 65%
    22:00 -5°C° 0 mm 5 mps 752 mmHg 67%
    23:00 -4°C° 0 mm 4 mps 752 mmHg 69%

    23 February, Friday

    Time Temperature Precipitation Wind Pressure Humidity
    00:00 -4°C° 0 mm 4 mps 752 mmHg 72%
    01:00 -4°C° 0 mm 4 mps 752 mmHg 73%
    02:00 -4°C° 0 mm 4 mps 752 mmHg 75%
    03:00 -5°C° 0 mm 4 mps 752 mmHg 77%
    04:00 -5°C° 0 mm 4 mps 752 mmHg 77%
    05:00 -5°C° 0 mm 4 mps 752 mmHg 76%
    06:00 -5°C° 0 mm 4 mps 752 mmHg 76%
    07:00 -5°C° 0 mm 5 mps 752 mmHg 69%
    08:00 -4°C° 0 mm 5 mps 753 mmHg 62%
    09:00 -4°C° 0 mm 6 mps 753 mmHg 55%
    10:00 -2°C° 0 mm 6 mps 753 mmHg 49%
    11:00 -1°C° 0 mm 6 mps 753 mmHg 43%
    12:00 +1°C° 0 mm 6 mps 752 mmHg 37%
    13:00 +1°C° 0 mm 6 mps 752 mmHg 36%
    14:00 +1°C° 0 mm 6 mps 752 mmHg 36%
    15:00 +2°C° 0 mm 6 mps 752 mmHg 35%
    16:00 -1°C° 0 mm 6 mps 752 mmHg 40%
    17:00 -1°C° 0 mm 5 mps 752 mmHg 44%
    18:00 -2°C° 0 mm 5 mps 752 mmHg 48%
    19:00 -4°C° 0 mm 5 mps 752 mmHg 49%
    20:00 -4°C° 0 mm 5 mps 753 mmHg 51%
    21:00 -5°C° 0 mm 5 mps 753 mmHg 52%
    22:00 -5°C° 0 mm 5 mps 753 mmHg 53%
    23:00 -5°C° 0 mm 5 mps 753 mmHg 54%

    24 February, Saturday

    Time Temperature Precipitation Wind Pressure Humidity
    00:00 -5°C° 0 mm 5 mps 753 mmHg 55%
    01:00 -6°C° 0 mm 6 mps 753 mmHg 55%
    02:00 -6°C° 0 mm 6 mps 753 mmHg 54%
    03:00 -6°C° 0 mm 6 mps 752 mmHg 54%
    04:00 -6°C° 0 mm 6 mps 753 mmHg 52%
    05:00 -6°C° 0 mm 6 mps 753 mmHg 51%
    06:00 -6°C° 0 mm 6 mps 753 mmHg 49%
    07:00 -6°C° 0 mm 7 mps 753 mmHg 45%
    08:00 -4°C° 0 mm 7 mps 753 mmHg 41%
    09:00 -5°C° 0 mm 8 mps 753 mmHg 37%
    10:00 -4°C° 0 mm 8 mps 753 mmHg 36%
    11:00 -2°C° 0 mm 8 mps 753 mmHg 35%
    12:00 -1°C° 0 mm 8 mps 753 mmHg 34%
    13:00 -1°C° 0 mm 8 mps 753 mmHg 34%
    14:00 -1°C° 0 mm 7 mps 752 mmHg 35%
    15:00 -1°C° 0 mm 7 mps 752 mmHg 35%
    16:00 -2°C° 0 mm 7 mps 752 mmHg 37%
    17:00 -3°C° 0 mm 7 mps 753 mmHg 39%
    18:00 -5°C° 0 mm 6 mps 753 mmHg 40%
    19:00 -5°C° 0 mm 6 mps 753 mmHg 40%
    20:00 -5°C° 0 mm 6 mps 754 mmHg 40%
    21:00 -7°C° 0 mm 7 mps 754 mmHg 41%
    22:00 -6°C° 0 mm 6 mps 754 mmHg 40%
    23:00 -8°C° 0 mm 6 mps 754 mmHg 40%

    25 February, Sunday

    Time Temperature Precipitation Wind Pressure Humidity
    00:00 -8°C° 0 mm 6 mps 754 mmHg 40%
    01:00 -8°C° 0 mm 6 mps 754 mmHg 41%
    02:00 -9°C° 0 mm 6 mps 754 mmHg 41%
    03:00 -9°C° 0 mm 6 mps 754 mmHg 42%
    04:00 -9°C° 0 mm 7 mps 754 mmHg 43%
    05:00 -9°C° 0 mm 7 mps 754 mmHg 45%
    06:00 -11°C° 0 mm 7 mps 754 mmHg 46%
    07:00 -9°C° 0 mm 7 mps 754 mmHg 45%
    08:00 -10°C° 0 mm 8 mps 754 mmHg 43%
    09:00 -10°C° 0 mm 8 mps 754 mmHg 41%
    10:00 -8°C° 0 mm 8 mps 754 mmHg 38%
    11:00 -7°C° 0 mm 8 mps 754 mmHg 34%
    12:00 -6°C° 0 mm 8 mps 753 mmHg 31%
    13:00 -6°C° 0 mm 8 mps 753 mmHg 30%
    14:00 -6°C° 0 mm 8 mps 753 mmHg 30%
    15:00 -6°C° 0 mm 8 mps 753 mmHg 29%
    16:00 -7°C° 0 mm 7 mps 753 mmHg 32%
    17:00 -8°C° 0 mm 6 mps 753 mmHg 34%
    18:00 -9°C° 0 mm 6 mps 753 mmHg 37%
    19:00 -9°C° 0 mm 6 mps 753 mmHg 37%
    20:00 -9°C° 0 mm 6 mps 754 mmHg 38%
    21:00 -10°C° 0 mm 6 mps 754 mmHg 39%
    22:00 -10°C° 0 mm 6 mps 754 mmHg 40%
    23:00 -10°C° 0 mm 6 mps 754 mmHg 41%
    Show more